Weather History for Spokane, WA

Change the Weather History Date:

Friday, December 7, 2012

  Actual Average Record
Temperature  
Mean Temperature 35 °F 28 °F  
Max Temperature 40 °F 33 °F 54 °F (1938)
Min Temperature 29 °F 24 °F -5 °F (1972)
Degree Days  
Heating Degree Days 30 37  
Month to date heating degree days 172 252  
Since 1 July heating degree days 1557 1919  
Cooling Degree Days 0 0  
Month to date cooling degree days 0 0  
Year to date cooling degree days 535 450  
Moisture  
Dew Point 31 °F    
Average Humidity 84    
Maximum Humidity 92    
Minimum Humidity 76    
Precipitation  
Precipitation 0.06 in 0.08 in 0.65 in (1882)
Month to date precipitation 0.86 0.59  
Year to date precipitation 19.60 14.85  
Snow  
Snow T in 0.40 in 4.80 in (1966)
Month to date snowfall T 2.9  
Since 1 July snowfall 5.9 10.4  
Snow Depth 0.00 in    
Sea Level Pressure  
Sea Level Pressure 29.91 in    
Wind  
Wind Speed 16 mph (SW)    
Max Wind Speed 32 mph    
Max Gust Speed 40 mph    
Visibility 8 miles    
Events Rain , Snow    
T = Trace of Precipitation, MM = Missing Value Source: NWS Daily Summary

Daily Weather History Graph

Daily Weather History Graph

Search for Another Location

Airport:

Trip Planner

Search our weather history database for the weather conditions in past years. The results will help you decide how hot, cold, wet, or windy it might be!

Date:

Astronomy

Dec. 07, 2012 Rise Set
Actual Time 7:24 AM PST 3:58 PM PST
Civil Twilight 6:49 AM PST 4:34 PM PST
Nautical Twilight 6:10 AM PST 5:13 PM PST
Astronomical Twilight 5:32 AM PST 5:50 PM PST
Moon 12:25 AM PST (12/7) 12:19 PM PST (12/7)
Length of Visible Light 9h 45m
Length of Day
8h 33m
Last Quarter, 37% of the Moon is Illuminated
Dec 7
Last Quarter
Dec 13
New
Dec 19
First Quarter
Dec 28
Full
Jan 4
Last Quarter

Hourly Weather History & Observations

Time (PST) Temp. Windchill Dew Point Humidity Pressure Visibility Wind Dir Wind Speed Gust Speed Precip Events Conditions
12:53 AM 30.0 °F 20.5 °F 28.9 °F 96% 30.03 in 10.0 mi SW 11.5 mph - N/A   Partly Cloudy
1:53 AM 30.0 °F 21.7 °F 28.9 °F 96% 30.04 in 10.0 mi SW 9.2 mph - N/A   Mostly Cloudy
2:53 AM 30.0 °F 22.4 °F 28.9 °F 96% 30.04 in 0.5 mi South 8.1 mph - N/A   Overcast
3:53 AM 30.0 °F 21.7 °F 28.9 °F 96% 30.04 in 0.5 mi SSW 9.2 mph - N/A   Scattered Clouds
4:13 AM 30.2 °F 21.3 °F 28.4 °F 93% 29.98 in 3.0 mi South 10.4 mph - N/A   Overcast
4:53 AM 30.9 °F 23.5 °F 28.9 °F 92% 30.02 in 3.0 mi South 8.1 mph - N/A   Overcast
5:53 AM 32.0 °F 23.0 °F 30.0 °F 92% 30.01 in 5.0 mi South 11.5 mph - N/A   Overcast
6:53 AM 32.0 °F 23.6 °F 30.9 °F 96% 29.99 in 7.0 mi South 10.4 mph - N/A   Overcast
7:06 AM 32.0 °F 22.5 °F 30.2 °F 93% 29.94 in 9.0 mi South 12.7 mph - N/A   Overcast
7:25 AM 33.8 °F 23.9 °F 32.0 °F 93% 29.94 in 2.0 mi SSW 15.0 mph - 0.00 in Snow Light Snow
7:53 AM 33.1 °F 25.5 °F 32.0 °F 96% 29.98 in 3.0 mi SSW 9.2 mph - 0.01 in Snow Light Snow
8:53 AM 34.0 °F 23.4 °F 33.1 °F 96% 29.94 in 10.0 mi SSW 17.3 mph 24.2 mph 0.01 in   Overcast
9:53 AM 35.1 °F 23.5 °F 34.0 °F 96% 29.91 in 10.0 mi SSW 21.9 mph 31.1 mph N/A   Overcast
10:53 AM 37.0 °F 26.4 °F 34.0 °F 89% 29.89 in 10.0 mi SSW 20.7 mph - N/A   Overcast
11:53 AM 35.1 °F 24.8 °F 33.1 °F 92% 29.85 in 3.0 mi SSW 17.3 mph - 0.03 in Rain , Snow Light Rain
12:53 PM 37.9 °F 26.6 °F 35.1 °F 89% 29.80 in 10.0 mi SW 25.3 mph 36.8 mph 0.01 in   Mostly Cloudy
1:53 PM 39.9 °F 28.6 °F 35.1 °F 83% 29.79 in 10.0 mi SW 28.8 mph 38.0 mph N/A   Mostly Cloudy
2:53 PM 39.9 °F 29.0 °F 35.1 °F 83% 29.78 in 10.0 mi SW 26.5 mph 35.7 mph N/A   Overcast
3:53 PM 39.0 °F 29.6 °F 33.1 °F 79% 29.78 in 10.0 mi WSW 18.4 mph 27.6 mph N/A   Mostly Cloudy
4:53 PM 37.0 °F 28.1 °F 30.9 °F 79% 29.79 in 10.0 mi WSW 15.0 mph - N/A   Mostly Cloudy
5:53 PM 34.0 °F 23.4 °F 30.0 °F 85% 29.80 in 10.0 mi WSW 17.3 mph - N/A   Mostly Cloudy
6:53 PM 32.0 °F 22.1 °F 28.9 °F 88% 29.82 in 10.0 mi West 13.8 mph - N/A   Scattered Clouds
7:53 PM 30.9 °F 19.4 °F 28.9 °F 92% 29.83 in 10.0 mi West 17.3 mph - N/A   Scattered Clouds
8:53 PM 30.9 °F 19.1 °F 28.0 °F 89% 29.85 in 9.0 mi West 18.4 mph 26.5 mph 0.00 in Snow Light Snow
9:53 PM 32.0 °F 20.8 °F 26.1 °F 79% 29.88 in 10.0 mi West 17.3 mph - 0.00 in   Mostly Cloudy
10:53 PM 30.0 °F 19.1 °F 26.1 °F 85% 29.91 in 10.0 mi West 15.0 mph - N/A   Mostly Cloudy
11:53 PM 28.9 °F 17.3 °F 25.0 °F 85% 29.94 in 10.0 mi WSW 16.1 mph - N/A   Scattered Clouds